Regional Weather Roundup
Issued by NWS Midland/Odessa, TX

Home | Current Version | Previous Version | Text Only | Print | Product List | Glossary On
Versions: 1 2 3 4 5 6 7 8 9 10 11 12 13 14 15 16 17 18 19 20 21 22 23 24 25 26 27 28 29 30 31 32 33 34 35 36 37 38 39 40 41 42 43 44 45 46 47 48 49 50
000
ASUS44 KMAF 201810
RWRMAF
MIDLAND AREA WEATHER ROUNDUP
NATIONAL WEATHER SERVICE MIDLAND TX
1200 PM CST SAT DEC 20 2014

...IN SOUTHWEST TEXAS AND SOUTHEAST NEW MEXICO...

CITY           SKY/WX    TMP DP  RH WIND       PRES   REMARKS
ALPINE         SUNNY     56  32  38 SW13      30.19F
ANDREWS        CLOUDY    41  40  98 SW6       30.15F WCI  37
ARTESIA        SUNNY     43  30  61 SE6       30.12F WCI  39
BIG SPRING     CLOUDY    46  44  92 S10       30.19F
CARLSBAD       SUNNY     43  33  68 E7        30.12F WCI  39
DRYDEN           N/A     50  45  83 SE3       30.15F
FORT STOCKTON  SUNNY     54  31  41 CALM      30.14F
GUAD PASS      NOT AVBL
HOBBS          CLOUDY    39  39 100 SE7       30.14F WCI  34
MARFA          SUNNY     54  32  43 SW3       30.17F
MIDLAND AIRPK  CLOUDY    45  45 100 SE5       30.16F FOG
MIDLAND INTL   MOSUNNY   49  41  74 S7        30.14F
ODESSA         MOSUNNY   47  40  76 S7        30.15F
PECOS          SUNNY     47  33  56 N5        30.15F
PRESIDIO       FAIR      55  34  45 CALM      30.15F
SEMINOLE       CLOUDY    40  39  97 S7        30.16F WCI  35
SNYDER         CLOUDY    44  40  85 S8        30.19F WCI  39
WINK           SUNNY     46  33  60 CALM      30.14F
$$
...OTHER STATIONS IN TEXAS...

CITY           SKY/WX    TMP DP  RH WIND       PRES   REMARKS
ABILENE        CLOUDY    46  38  73 SW7       30.22F
AMARILLO       SUNNY     40  33  76 S9        30.10F WCI  34
AUSTIN         CLOUDY    53  46  77 N7        30.23F
BROWNSVILLE    CLOUDY    58  54  86 N12       30.17F
CORPUS CHRISTI CLOUDY    55  50  83 N12       30.20F
DALLAS FTW     DRIZZLE   45  42  89 NE6       30.25F FOG
DEL RIO        CLOUDY    53  46  77 SE8       30.19F
EL PASO        MOSUNNY   48  27  44 VRB3      30.17S
HOUSTON INT    CLOUDY    54  49  83 N9        30.19F
LUBBOCK        CLOUDY    43  37  79 S14       30.13F WCI  36
SAN ANGELO     CLOUDY    50  42  74 VRB6      30.20F
SAN ANTONIO    CLOUDY    54  43  66 N12       30.22F
WACO           CLOUDY    50  44  80 NW7       30.25F
WICHITA FALLS  NOT AVBL
$$
...OTHER LOCATIONS IN NEW MEXICO...

CITY           SKY/WX    TMP DP  RH WIND       PRES   REMARKS
ALAMAGORDO     MOSUNNY   39  28  65 CALM      30.17F
ALBUQUERQUE    PTSUNNY   37  26  64 CALM      30.17F
CANNON AFB     SUNNY     44  22  40 W15       30.07F WCI  37
CLOVIS         SUNNY     45  25  45 SW14G20   30.08F WCI  38
HOLLOMAN AFB   PTSUNNY   40  29  66 CALM      30.16F
ROSWELL        SUNNY     48  27  44 SE12      30.10F
RUIDOSO        MOSUNNY   45  16  31 NW7       30.13R
SANTA FE       PTSUNNY   34  17  50 N13       30.12F WCI  25
TRUTH OR CONSE SUNNY     42  24  49 NE7       30.17S WCI  38
TUCUMCARI      SUNNY     36  30  79 SW3       30.06F
$$



USA.gov is the U.S. government's official web portal to all federal, state and local government web resources and services.